Location: Kellogg
(38.0159°N, 90.0546°W)
Time: 03:08:33
(UTC+00:00)

SR - Pass Details

Date: 17 September 2024
Orbit: 577 x 855 km, 66.7° (Epoch: 10 October)

Event Time Altitude Azimuth Distance (km) Brightness Sun altitude
Rises 03:45:15 0° 332° (NNW) 2,969 ? -40.0°
Reaches altitude 10° 03:47:28 10° 334° (NNW) 2,094 ? -40.3°
Enters shadow 03:47:45 12° 334° (NNW) 1,984 ? -40.3°
Maximum altitude 03:52:14 83° 62° (ENE) 717 - -40.9°
Drops below altitude 10° 03:57:25 10° 151° (SSE) 2,266 - -41.6°
Sets 03:59:53 0° 152° (SSE) 3,233 - -41.9°
